Location: Northcutt
(34.7304°N, 84.4305°W)
Time: 18:13:30
(UTC+00:00)

SR - Pass Details

Date: 14 October 2022
Orbit: 577 x 874 km, 66.7° (Epoch: 05 December)

Event Time Altitude Azimuth Distance (km) Brightness Sun altitude
Rises 09:32:40 0° 325° (NW) 3,210 - -27.4°
Reaches altitude 10° 09:35:16 10° 318° (NW) 2,230 - -26.9°
Maximum altitude 09:39:56 39° 251° (WSW) 1,032 - -25.9°
Drops below altitude 10° 09:44:13 10° 182° (S) 2,041 - -25.1°
Exits shadow 09:45:32 - 177° (S) 2,527 ? -24.8°
Sets 09:46:31 0° 174° (S) 2,905 ? -24.6°
